Regional Weather Roundup
Issued by NWS

Home | Current Version | Previous Version | Text Only | Print | Product List | Glossary Off
Versions: 1 2 3 4 5 6 7 8 9 10 11 12 13 14 15 16 17 18 19 20 21 22 23 24 25 26 27 28 29 30 31 32 33 34 35 36 37 38 39 40 41 42 43 44 45 46 47 48 49 50

000
ASUS43 KIND 050659
RWRIN

WEATHER ROUNDUP FOR INDIANA
NATIONAL WEATHER SERVICE INDIANAPOLIS IN
300 AM EDT TUE MAY 05 2015

NOTE: "FAIR" INDICATES FEW OR NO CLOUDS BELOW 12,000 FEET WITH NO
SIGNIFICANT WEATHER AND/OR OBSTRUCTIONS TO VISIBILITY.

* - STATION DOES NOT REPORT WEATHER SUCH AS PRECIPITATION OR FOG.

+ - STATION NOT QUALITY CONTROLLED BY THE NATIONAL WEATHER SERVICE.
    USE DATA WITH CAUTION...ESPECIALLY DEWPOINT AND RELATIVE
    HUMIDITY OBSERVATIONS.

INZ001>003-010>013-019-020-050800-
NORTHWEST INDIANA

CITY           SKY/WX    TMP DP  RH WIND       PRES   REMARKS

$$

LMZ046-743>745-050800-
SOUTHERN LAKE MICHIGAN

STATION/POSITION TIME  TEMP    WIND        PRES    WAVE
                       AIR SEA DIR/SP/G            HT
                 (UTC) (F)     (DEG/KT/KT) (MB)    (FT)
BURNS HARBOR     0600   54      70/  4/  7 1021.7F
MICHIGAN CITY    0600   58      60/  5/  6   N/A
5NW MICH CITY    0600   53 50   90/  4/  6   N/A     1

$$

INZ004-005-014>016-021>024-050800-
NORTH CENTRAL INDIANA

CITY           SKY/WX    TMP DP  RH WIND       PRES   REMARKS
GOSHEN         PTCLDY    58  56  93 CALM      30.17F FOG
PERU/GRISSOM   LGT RAIN  63  61  94 SE6       30.17R FOG
SOUTH BEND     PTCLDY    60  54  80 CALM      30.18S

$$

INZ006>009-017-018-025>027-050800-
NORTHEAST INDIANA

CITY           SKY/WX    TMP DP  RH WIND       PRES   REMARKS
ANGOLA *+      MOCLDY    55  55 100 CALM      30.19S
FORT WAYNE     MOCLDY    59  58  96 SE3       30.19F

$$

INZ028-029-035-036-043>045-051>053-050800-
WEST CENTRAL INDIANA

CITY           SKY/WX    TMP DP  RH WIND       PRES   REMARKS
CRAWFORDSVL +  MOCLDY    60  54  81 SE9       30.16S
GREENCASTLE +  PTCLDY    59  55  88 CALM      30.18S FOG
LAFAYETTE      CLOUDY    62  58  86 E6        30.15S
TERRE HAUTE    MOCLDY    61  56  83 S5        30.16S

$$

INZ030>032-037>040-046>048-054>057-064-065-050800-
CENTRAL INDIANA

CITY           SKY/WX    TMP DP  RH WIND       PRES   REMARKS
GREENWOOD *+   CLOUDY    64  61  88 SE7       30.19F
INDIANAPOLIS   CLOUDY    63  60  90 E3        30.17S
-EAGLE CREEK   MOCLDY    63  60  90 SE5       30.18F
KOKOMO *+      MOCLDY    63  61  94 SE7       30.18S THUNDER
MT COMFORT *+  MOCLDY    63 N/A N/A SE6       30.19F
SHELBYVILLE    CLOUDY    65  60  84 SE7       30.18F

$$

INZ033-034-041-042-049-050-058-059-050800-
EAST CENTRAL INDIANA

CITY           SKY/WX    TMP DP  RH WIND       PRES   REMARKS
MUNCIE         LGT RAIN  62  60  93 VRB3      30.18F

$$

INZ060-061-067>069-081>083-085>088-050800-
SOUTHWEST INDIANA

CITY           SKY/WX    TMP DP  RH WIND       PRES   REMARKS
EVANSVILLE     CLEAR     66  55  67 SW3       30.19F
HUNTINGBURG *+ CLEAR     64  54  68 S5        30.20S

$$

INZ062-063-066-070>080-084-089>092-050800-
SOUTH CENTRAL AND SOUTHEAST INDIANA

CITY           SKY/WX    TMP DP  RH WIND       PRES   REMARKS
BLOOMINGTON    PTCLDY    67  55  65 SW6       30.18F
MADISON *+     CLEAR     61  55  82 CALM      30.23S
SEYMOUR +      CLEAR     63  55  77 CALM      30.19S

$$




USA.gov is the U.S. government's official web portal to all federal, state and local government web resources and services.